Regional Weather Roundup
Issued by NWS

Home | Current Version | Previous Version | Text Only | Print | Product List | Glossary On
Versions: 1 2 3 4 5 6 7 8 9 10 11 12 13 14 15 16 17 18 19 20 21 22 23 24 25 26 27
000
ASUS45 KBOU 290507
RWRCO

WEATHER ROUNDUP FOR COLORADO
NATIONAL WEATHER SERVICE DENVER/BOULDER CO
1100 PM MDT SAT MAY 28 2016

NOTE: "FAIR" INDICATES FEW OR NO CLOUDS BELOW 12000 FEET WITH NO
SIGNIFICANT WEATHER AND/OR OBSTRUCTIONS TO VISIBILITY.

COZ001>005-013-030-031-290600-
...NORTHWEST COLORADO...

CITY           SKY/WX    TMP DP  RH WIND       PRES   REMARKS
CRAIG          FAIR      45  38  76 SE5       30.20R
HAYDEN         FAIR      50  36  57 E6        30.21R
MEEKER         FAIR      46  38  73 NE6       30.20R
MOUNT WERNER   NOT AVBL
STEAMBOAT SPGS FAIR      46  37  71 CALM      30.23R
WALDEN         NOT AVBL
$$

COZ006>008-011-290600-
...WEST CENTRAL VALLEYS...

CITY           SKY/WX    TMP DP  RH WIND       PRES   REMARKS
GRAND JUNCTION FAIR      58  35  42 NE6       30.10R
MONTROSE       MOCLDY    57  34  41 NE5       30.17R
EAGLE          FAIR      48  37  66 E5        30.25R
RIFLE          FAIR      51  36  56 SE10      30.16R
DELTA          FAIR      67  32  27 E3        30.12R
NUCLA          FAIR      59  30  33 E6        30.19R
$$

COZ017>023-064>068-290600-
...SOUTHWEST COLORADO...

CITY           SKY/WX    TMP DP  RH WIND       PRES   REMARKS
DURANGO        FAIR      51  32  48 CALM      30.18R
CORTEZ         FAIR      50  32  50 E5        30.13R
PAGOSA SPRINGS FAIR      45  31  59 CALM      30.26R
TELLURIDE      FAIR      46  31  54 SE7       30.34S
WOLF CREEK PAS FAIR      36  21  55 CALM      30.51R
$$

COZ009-010-012-014-032>034-037-058>063-290600-
...CENTRAL COLORADO...

CITY           SKY/WX    TMP DP  RH WIND       PRES   REMARKS
ASPEN          FAIR      43  32  65 SW5       30.28R
BUENA VISTA    MOCLDY    47  29  48 NW7       30.29R
COPPER MTN     NOT AVBL
BERTHOUD PASS  FAIR      28  19  69 NW17G24   30.47R WCI  16
COTTONWOOD PAS FAIR      46  30  53 W13G20    30.37S
GUNNISON       FAIR      52  30  43 N5        30.29R
KREMMLING      FAIR      39  36  87 CALM      30.29R
LEADVILLE        N/A     32  26  78 NE3       30.37R
MONARCH PASS   FAIR      36  27  69 MISG      30.57S
SALIDA         MOCLDY    55  33  43 W9        30.34S
SUNLIGHT       FAIR      41  30  65 CALM      30.44R
WILKERSON PASS FAIR      37  25  60 CALM      30.47R
$$

COZ069>075-290600-
...SAN LUIS VALLEY/SANGRE DE CRISTO MOUNTAINS...

CITY           SKY/WX    TMP DP  RH WIND       PRES   REMARKS
ALAMOSA        FAIR      47  37  68 N7        30.27R
LA VETA PASS   FAIR      45  27  49 CALM      30.41R
SAGUACHE       FAIR      46  32  57 N6        30.29R
$$

COZ035-036-038>040-290600-
...NORTHERN COLORADO FRONT RANGE...

CITY           SKY/WX    TMP DP  RH WIND       PRES   REMARKS
DENVER INTL AP FAIR      51  44  77 S13       30.14R
DMNS CITY PARK   N/A     56  45  67 S6        30.14S
AURORA         PTCLDY    51  43  73 S8        30.16S
FRONT RANGE AP NOT AVBL
ERIE MUNI ARPT FAIR      50  44  81 CALM      30.14R
BOULDER MUN AP FAIR      52  43  71 CALM      30.14R
CENTENNIAL     FAIR      51  41  68 SW8       30.17R
BROOMFIELD     NOT AVBL
FORT COLLINS   FAIR      54  45  71 S5        30.14R
LONGMONT       FAIR      52  45  77 CALM      30.15R
$$

COZ041-046-047-076>085-087-088-290600-
...PIKES PEAK/PALMER DIVIDE AND SOUTHERN FOOTHILLS...

CITY           SKY/WX    TMP DP  RH WIND       PRES   REMARKS
COLO. SPRINGS  FAIR      53  39  59 N5        30.21S
A. F. ACADEMY  FAIR      46  37  71 N8        30.22R
SCHRIEVER AFB  NOT AVBL
ELLICOTT       FAIR       1  32 100 E7        30.19S WCI -12
FALCON         FAIR      48  40  75 CALM      30.24S
FORT CARSON    FAIR      51  40  66 NE2       30.18R
LIMON          FAIR      50  45  83 N10       30.17R
MONUMENT HILL  FAIR      45  37  76 SW6       30.25R
TRINIDAD       FAIR      50  43  77 W10       30.16S
$$

COZ042>045-048>051-090-091-290600-
...NORTHEAST COLORADO...

CITY           SKY/WX    TMP DP  RH WIND       PRES   REMARKS
GREELEY ARPT   FAIR      54  46  76 W6        30.12S
AKRON          CLOUDY    58  41  53 S13       30.12R
BURLINGTON     FAIR      55  47  74 CALM      30.13R
WRAY           FAIR      59  46  63 W6        30.08S
STERLING       FAIR      52  48  87 S3        30.08S
HOLYOKE        FAIR      59  48  67 NE12      30.08R
FORT MORGAN    FAIR      56  42  59 S9        30.11F
$$

COZ086-089-092>099-290600-
...SOUTHEAST COLORADO...

CITY           SKY/WX    TMP DP  RH WIND       PRES   REMARKS
PUEBLO         FAIR      57  48  72 N8        30.12R
LA JUNTA       FAIR      65  46  50 E6        30.09R
LAMAR          FAIR      59  44  57 N6        30.05R
SPRINGFIELD      N/A     60  45  57 VRB3      30.12R
$$




USA.gov is the U.S. government's official web portal to all federal, state and local government web resources and services.